083  
AXUS43 KLBF 191010  
MISLBF  
 
WESTERN AND NORTH CENTRAL NEBRASKA HOURLY WEATHER ROUNDUP  
NATIONAL WEATHER SERVICE NORTH PLATTE NE  
500 AM CDT FRI JUL 19 2019  
 
NOTE: "FAIR" INDICATES FEW OR NO CLOUDS BELOW 12,000 FEET WITH NO  
SIGNIFICANT WEATHER AND/OR OBSTRUCTIONS TO VISIBILITY.  
 
NOTE: STATIONS NOT REPORTING SKY/WEATHER AND PRESSURE ARE  
PROVIDED BY RAWS AND APRS NETWORKS AND ARE NOT UNDER NATIONAL  
WEATHER SERVICE QUALITY CONTROL.  
   
..OBSERVATIONS IN AND NEAR THE EASTERN PANHANDLE OF NEBRASKA
 
 
 
CITY SKY/WX TMP DP RH WIND PRES REMARKS  
PINE RIDGE CLEAR 68 64 87 W7 29.72R  
GORDON FAIR 70 57 64 W8G16 29.73R  
CHADRON CLEAR 62 56 80 CALM 29.73R  
ALLIANCE CLEAR 60 52 74 W7 29.78S  
SIDNEY CLEAR 62 49 62 W6 29.85S  
CRESCENT LAKE N/A 72 55 55 W6 N/A  

 
   
..OBSERVATIONS IN NORTHERN NEBRASKA AND FAR SOUTHERN SOUTH DAKOTA
 
 
 
CITY SKY/WX TMP DP RH WIND PRES REMARKS  
WINNER FAIR 76 71 85 SE15 29.60F  
VALENTINE CLEAR 71 65 81 SW7 29.66S  
AINSWORTH CLEAR 74 67 79 SW13 29.66F  
O'NEILL FAIR 77 74 90 SE9 29.66F  
THEDFORD CLEAR 74 66 74 SW10 29.71F  
BROKEN BOW FAIR 75 69 81 S6 29.71F  
ORD FAIR 75 70 84 S9 29.68S  
ALBION CLEAR 76 73 91 SE6 29.70S  
EWING N/A 75 73 93 SE3 N/A  
CHAMBERS N/A 74 71 91 CALM N/A  
BUTTE N/A 76 73 91 SE12 N/A  
VALENTINE NWR N/A 73 66 79 S7 N/A  
HALSEY N/A 76 65 67 S6G13 N/A  

 
   
..OBSERVATIONS IN SOUTHWEST NEBRASKA AND FAR NORTHEAST COLORADO
 
 
 
CITY SKY/WX TMP DP RH WIND PRES REMARKS  
WRAY FAIR 64 54 68 SW6 29.81S  
HOLYOKE FAIR 64 55 72 W6 29.80  
IMPERIAL CLEAR 70 60 70 SW5 29.77S  
OGALLALA CLEAR 70 62 76 CALM 29.76F  
NORTH PLATTE CLEAR 77 66 68 SW6 29.72S  
MCCOOK CLEAR 74 65 73 SW5 29.74S  
LEXINGTON FAIR 77 69 76 S12 29.73S  
CALLAWAY N/A 73 69 89 S12 N/A  
STAPLETON N/A 74 67 78 CALM N/A  

 
   
..OBSERVATIONS IN CENTRAL LINCOLN COUNTY AREA
 
 
 
CITY SKY/WX TMP DP RH WIND PRES REMARKS  
N.P. AIRPORT CLEAR 77 66 68 SW6 29.72S  
N.P. HILLCREST N/A 78 66 66 CALM N/A  
N.P. DOWNTOWN N/A 78 67 68 CALM N/A  
N.P. SOUTHEAST N/A 79 66 64 S7G15 N/A  

 
   
..OBSERVATIONS ACROSS THE ROCKIES AND WESTERN HIGH PLAINS
 
 
 
CITY SKY/WX TMP DP RH WIND PRES REMARKS  
SCOTTSBLUFF CLEAR 59 55 87 CALM 29.81S  
KIMBALL CLEAR 58 44 58 SW10 29.90S  
CHEYENNE CLEAR 68 28 22 W10 29.99S  
DENVER PTCLDY 68 33 27 SW13 29.95S  
STEAMBOAT FAIR 47 35 62 CALM 30.14  
COPPER MTN CLEAR 55 21 26 SW9 30.56  
LEADVILLE CLEAR 41 25 53 NE6 30.39S  
ASPEN CLEAR 53 30 41 SW7 30.22S  
GUNNISON CLEAR 45 36 70 E3 30.27S  
TELLURIDE CLEAR 55 32 41 SE6 30.37S  
LARAMIE CLEAR 54 28 36 SW10 30.10F  
CASPER CLEAR 70 37 29 SW9G18 29.90S  
SHERIDAN PTCLDY 59 52 77 CALM 29.88R  
JACKSON HOLE CLOUDY 52 43 71 S5 30.01S  
YELLOWSTONE N/A 51 42 71 VRB5 30.09F  

 
   
..OBSERVATIONS ACROSS THE NORTHERN PLAINS
 
 
 
CITY SKY/WX TMP DP RH WIND PRES REMARKS  
RAPID CITY PTCLDY 70 69 97 NW12 29.72R  
PIERRE CLEAR 75 72 90 SE12 29.54F  
SIOUX FALLS CLEAR 74 72 93 E6 29.67F  
ABERDEEN MOCLDY 73 70 90 E6 29.64R  
WILLISTON PTCLDY 60 47 61 W10 29.72R  
DICKINSON CLOUDY 62 56 80 NW7 29.72R  
BISMARCK TSTM 70 62 76 NW7 29.70R  
FARGO PTCLDY 68 63 84 S5 29.65R  

 
   
..OBSERVATIONS ACROSS THE CENTRAL AND SOUTHERN PLAINS
 
 
 
CITY SKY/WX TMP DP RH WIND PRES REMARKS  
OMAHA CLEAR 82 73 74 S10 29.71S  
GRAND ISLAND CLEAR 81 69 67 S15G26 29.71F  
KANSAS CITY CLEAR 80 71 74 SW15G23 29.82S  
WICHITA CLEAR 79 68 69 S14 29.83S  
DODGE CITY CLEAR 77 66 68 S12 29.82F  
OKLAHOMA CITY CLEAR 78 70 76 S14 29.88S  
DALLAS CLEAR 82 72 71 S9G18 29.93S  
AMARILLO CLEAR 78 60 53 S18G26 29.91S  

 
 
 
CLICK HERE TO GO TO PREVIOUS BULLETINS.

The Nexlab NE Page Main Text Page